Header for Extended Forecast Station List Page

Search by: ID | Name | Date | Parm | Value | Avg | % Avg
Sort by: ID | Name | Date | Parm | Value | Avg | % Avg

Enter search or view all records.

Click on id for station plot
#IDNameDateParmValueAvg% Avg
0BULO3BULLY CREEK-BULLY CREEK DAM02-22-2021INFLOW (KAF)168198
1LWRI1LITTLE WOOD-LITTLE WOOD DAM02-22-2021INFLOW (KAF)336948
2BERO3MALHEUR-AGENCY VALLEY DAM02-22-2021INFLOW (KAF)365269
3RIDI1WILLOW CREEK-RIRIE DAM02-22-2021INFLOW (KAF)404391
4MYKO3MCKAY CREEK-NEAR PILOT ROCK02-22-2021DISCHARGE (KAF)4035115
5MACI1BIG LOST-MACKAY RESERVOIR NEAR MACKAY02-22-2021INFLOW (KAF)5810954
6PIHI1PORTNEUF-AT POCATELLO02-22-2021DISCHARGE (KAF)6110061
7HWRI1BIG LOST-AT HOWELL RANCH NEAR CHILLY02-22-2021DISCHARGE (KAF)6310759
8WRMO3MALHEUR-WARM SPRINGS DAM02-22-2021INFLOW (KAF)636991
9MAGI1BIG WOOD-MAGIC DAM02-22-2021INFLOW (KAF)6921732
10DLGM8CLARK FORK-AT DEER LODGE02-22-2021DISCHARGE (KAF)8484100
11HALI1BIG WOOD-AT HAILEY02-22-2021DISCHARGE (KAF)8717250
12DEDI1DEADWOOD-NEAR LOWMAN02-22-2021INFLOW (KAF)9111182
13HOTI1BRUNEAU-NEAR HOT SPRINGS02-22-2021DISCHARGE (KAF)10317060
14BUDW1BUMPING-BUMPING LAKE DAM02-22-2021INFLOW (KAF)12097124
15KADW1KACHESS-KACHESS DAM02-22-2021INFLOW (KAF)131102129
16GIBO3UMATILLA-NEAR GIBBON02-22-2021DISCHARGE (KAF)13483163
17EASW1YAKIMA-AT EASTON02-22-2021DISCHARGE (KAF)135100135
18KEDW1YAKIMA-KEECHELUS LAKE02-22-2021INFLOW (KAF)147107137
19IPDI1HENRYS FORK-ISLAND PARK DAM02-22-2021INFLOW (KAF)16218190
20SATI1ST MARIES-NEAR SANTA02-22-2021DISCHARGE (KAF)171151113
21ARDW1ENTIAT-NEAR ARDENVOIR02-22-2021DISCHARGE (KAF)182147123
22RILW1TIETON-RIMROCK LAKE NEAR RIMROCK02-22-2021INFLOW (KAF)188161117
23TNAW1TEANAWAY-BELOW FORKS02-22-2021DISCHARGE (KAF)203133153
24STRM8ST. REGIS-NEAR ST. REGIS02-22-2021DISCHARGE (KAF)22323993
25TCHW1WALLA WALLA-NEAR TOUCHET02-22-2021DISCHARGE (KAF)228185123
26DRMM8CLARK FORK-NR DRUMMOND02-22-2021DISCHARGE (KAF)235MM
27RCCM8ROCK CREEK-NEAR CLINTON02-22-2021DISCHARGE (KAF)253199127
28UMAO3UMATILLA-NEAR UMATILLA02-22-2021DISCHARGE (KAF)253142178
29TEAI1TETON-NEAR ST. ANTHONY02-22-2021DISCHARGE (KAF)25426396
30CHEI1FALL RIVER-NEAR CHESTER02-22-2021DISCHARGE (KAF)26829790
31OWYO3OWYHEE-OWYHEE DAM02-22-2021INFLOW (KAF)28236178
32PDTO3UMATILLA-AT PENDLETON02-22-2021DISCHARGE (KAF)283184154
33HODO3HOOD-NEAR TUCKER BRIDGE02-22-2021DISCHARGE (KAF)319270118
34ARAI1SF BOISE-ANDERSON RANCH DAM02-22-2021INFLOW (KAF)34245375
35UNDW1WHITE SALMON-NEAR UNDERWOOD02-22-2021DISCHARGE (KAF)35335799
36BIGI1BOISE-AT GLENWOOD BRIDGE02-22-2021DISCHARGE (KAF)35636099
37CLFW1NACHES-NEAR CLIFFDEL02-22-2021DISCHARGE (KAF)375327115
38PARI1BOISE-NEAR PARMA02-22-2021DISCHARGE (KAF)40942297
39CLUW1CLE ELUM-CLE ELUM LAKE02-22-2021INFLOW (KAF)414325127
40CSDI1NF PAYETTE-CASCADE DAM02-22-2021INFLOW (KAF)42646392
41WSRI1WEISER-NEAR WEISER02-22-2021DISCHARGE (KAF)43343899
42JLKW4SNAKE-JACKSON LAKE AT DAM02-22-2021INFLOW (KAF)46956383
43PITW1KLICKITAT-NEAR PITT02-22-2021DISCHARGE (KAF)52053298
44ANTI1HENRYS FORK-AT ST. ANTHONY02-22-2021DISCHARGE (KAF)52460986
45NACW1NACHES-NEAR NACHES02-22-2021DISCHARGE (KAF)557420133
46REXI1HENRYS FORK-AT REXBURG02-22-2021DISCHARGE (KAF)59471383
47MONO3NF JOHN DAY-AT MONUMENT02-22-2021DISCHARGE (KAF)660627105
48BONM8BLACKFOOT-NEAR BONNER02-22-2021DISCHARGE (KAF)696653106
49UMTW1YAKIMA-AT UMTANUM02-22-2021DISCHARGE (KAF)753644117
50PRTI1PRIEST-NEAR PRIEST RIVER02-22-2021DISCHARGE (KAF)759727104
51PARW1YAKIMA-NEAR PARKER02-22-2021DISCHARGE (KAF)812637127
52CHDW1CHELAN-LAKE CHELAN DAM02-22-2021INFLOW (KAF)852739115
53SERO3JOHN DAY-AT SERVICE CK02-22-2021DISCHARGE (KAF)86990296
54PATW1METHOW-NEAR PATEROS02-22-2021DISCHARGE (KAF)878670131
55EMMI1PAYETTE-NEAR EMMETT02-22-2021DISCHARGE (KAF)879114577
56JKSW4SNAKE-NEAR JACKSON02-22-2021DISCHARGE (KAF)890102787
57BITM8BITTERROOT-NEAR MISSOULA02-22-2021DISCHARGE (KAF)1029987104
58LUCI1BOISE-LUCKY PEAK DAM02-22-2021INFLOW (KAF)1029MM
59FCFM8NF FLATHEAD-NEAR COLUMBIA FALLS02-22-2021DISCHARGE (KAF)1053121986
60KIOW1YAKIMA-AT KIONA02-22-2021DISCHARGE (KAF)11281021111
61ALPW4SNAKE-NEAR ALPINE02-22-2021DISCHARGE (KAF)1162134886
62WGCM8MF FLATHEAD-NEAR WEST GLACIER02-22-2021DISCHARGE (KAF)1176119199
63ABOM8CLARK FORK-ABOVE MISSOULA02-22-2021DISCHARGE (KAF)12281189103
64PESW1WENATCHEE-AT PESHASTIN02-22-2021DISCHARGE (KAF)12641126112
65TONW1OKANOGAN-NEAR TONASKET02-22-2021DISCHARGE (KAF)13321197111
66LAUW1KETTLE-AT LAURIER02-22-2021DISCHARGE (KAF)1344149090
67MODO3DESCHUTES-AT MOODY NR BIGGS02-22-2021DISCHARGE (KAF)1423153393
68BFTI1SNAKE-NEAR BLACKFOOT02-22-2021DISCHARGE (KAF)1517167091
69SNAI1SNAKE-AT BLACKFOOT02-22-2021DISCHARGE (KAF)1558169692
70HHWM8SF FLATHEAD-HUNGRY HORSE DAM02-22-2021INFLOW (KAF)15921584100
71TRYO3GRANDE RONDE-TROY02-22-2021DISCHARGE (KAF)16511249132
72SWAI1SNAKE-BELOW SWAN FALLS02-22-2021DISCHARGE (KAF)1695268963
73PLDI1SF SNAKE-PALISADES DAM02-22-2021INFLOW (KAF)1778206286
74SHYI1SNAKE-NEAR SHELLEY02-22-2021DISCHARGE (KAF)1865196595
75SIFI1SNAKE-AB EAGLE ROCK NR IDAHO FALLS02-22-2021DISCHARGE (KAF)20031988101
76AFRI1SNAKE-AMERICAN FALLS RESERVOIR02-22-2021INFLOW (KAF)2088234789
77HEII1SNAKE-NEAR HEISE02-22-2021DISCHARGE (KAF)21541999108
78BELM8CLARK FORK-BELOW MISSOULA02-22-2021DISCHARGE (KAF)22582201103
79SPOW1SPOKANE-AT SPOKANE02-22-2021DISCHARGE (KAF)2737MM
80DWRI1NF CLEARWATER-DWORSHAK DAM02-22-2021INFLOW (KAF)28182604108
81SRGM8CLARK FORK-AT ST REGIS02-22-2021DISCHARGE (KAF)2896299097
82COEI1COEUR D ALENE-COEUR D ALENE LAKE02-22-2021INFLOW (KAF)29022829103
83LLKW1SPOKANE-AT LONGLAKE02-22-2021INFLOW (KAF)3023339989
84CFMM8FLATHEAD-AT COLUMBIA FALLS02-22-2021DISCHARGE (KAF)33523347100
85LYDM8KOOTENAI-LIBBY DAM02-22-2021INFLOW (KAF)3453388689
86WHBI1SALMON-AT WHITEBIRD02-22-2021DISCHARGE (KAF)3527461776
87WEII1SNAKE-AT WEISER02-22-2021DISCHARGE (KAF)3683539068
88KERM8FLATHEAD-SELI’Š KSANKA QLISPE’ DAM02-22-2021INFLOW (KAF)3863422791
89BRNI1SNAKE-BROWNLEE DAM02-22-2021INFLOW (KAF)4239582973
90ORFI1CLEARWATER-AT OROFINO02-22-2021DISCHARGE (KAF)44894214107
91LEOI1KOOTENAI-AT LEONIA02-22-2021DISCHARGE (KAF)46293933118
92NOXM8CLARK FORK-NOXON RAPIDS DAM02-22-2021INFLOW (KAF)6567766686
93SPDI1CLEARWATER-AT SPALDING02-22-2021DISCHARGE (KAF)67716553103
94CABI1CLARK FORK-CABINET GORGE DAM02-22-2021INFLOW (KAF)7250804790
95ALFW1PEND OREILLE-ALBENI FALLS DAM02-22-2021INFLOW (KAF)8681968990
96ANAW1SNAKE-NEAR ANATONE02-22-2021DISCHARGE (KAF)90201271671
97LGDW1SNAKE-LOWER GRANITE DAM02-22-2021INFLOW (KAF)157911927282
98LGSW1SNAKE-LITTLE GOOSE DAM02-22-2021INFLOW (KAF)157911930482
99LMNW1SNAKE-LOWER MONUMENTAL DAM02-22-2021INFLOW (KAF)159751950982
100IHDW1SNAKE-ICE HARBOR DAM02-22-2021INFLOW (KAF)159751938182
101CIBW1COLUMBIA-AT INTL BOUNDARY02-22-2021DISCHARGE (KAF)23861MM
102CHJW1COLUMBIA-CHIEF JOSEPH DAM02-22-2021INFLOW (KAF)267822824895
103GCDW1COLUMBIA-GRAND COULEE DAM02-22-2021INFLOW (KAF)282493165089
104WELW1COLUMBIA-WELLS DAM02-22-2021INFLOW (KAF)289583021496
105RRHW1COLUMBIA-ROCKY REACH DAM02-22-2021INFLOW (KAF)297253065897
106PRWW1COLUMBIA-PRIEST RAPIDS DAM02-22-2021INFLOW (KAF)309863375292
107WANW1COLUMBIA-WANAPUM DAM02-22-2021INFLOW (KAF)309933316593
108MCDW1COLUMBIA-MCNARY DAM02-22-2021INFLOW (KAF)481385525887
109JDAO3COLUMBIA-JOHN DAY DAM02-22-2021INFLOW (KAF)505805783987
110TDAO3COLUMBIA-THE DALLES DAM02-22-2021INFLOW (KAF)509855497293
111BONO3COLUMBIA-BONNEVILLE DAM02-22-2021INFLOW (KAF)521515724191
112BFEI1KOOTENAI-AT BONNERS FERRY02-22-2021STAGE (FT)MMM
113HOPI1PEND OREILLE-PEND OREILLE LAKE NR HOPE02-22-2021LAKE ELEVATION (FT)MMM
114SJMI1ST JOE-AT ST MARIES02-22-2021STAGE (FT)MMM
115MILI1SNAKE-AT MILNER02-22-2021DISCHARGE (KAF)M631M